Simultaneous Nadir Overpasses (SNOs) Predictions

Prediction of SNOs between AQUA and NOAA-19 Satellite Orbit:

Table of predicted SNOs for the next 14.0 days since TLE Epoch: 5/14/2022
Index Date (AQUA) Time (AQUA) Lat,Lon (AQUA) SZA (AQUA ) Date (NOAA-19) Time (NOAA-19) Lat,Lon (NOAA-19) SZA (NOAA-19 ) Distance(km) Time Diff (sec)
1 05/14/2022 11:24:24 -77.72, 171.93 120.52 05/14/2022 11:24:26 -77.73, 172.06 120.51 3.29 2
2 05/16/2022 16:57:49 77.71, -91.37 58.96 05/16/2022 16:57:24 77.68, -91.35 58.94 2.86 25
3 05/16/2022 17:47:15 -77.71, 76.25 121.05 05/16/2022 17:48:23 -77.74, 76.22 121.04 3.40 68
4 05/18/2022 22:31:12 -77.66, 5.52 121.61 05/18/2022 22:30:22 -77.68, 5.44 121.57 2.67 50
5 05/18/2022 23:20:40 77.72, 172.87 58.47 05/18/2022 23:21:21 77.71, 172.89 58.45 1.28 41
6 05/21/2022 04:04:36 77.64, 102.25 57.91 05/21/2022 04:03:23 77.54, 101.58 57.88 19.34 73
7 05/21/2022 04:54:03 -77.69, -90.30 122.04 05/21/2022 04:54:18 -77.72, -90.25 122.02 3.68 15
8 05/23/2022 10:27:27 77.69, 6.35 57.53 05/23/2022 10:27:17 77.68, 6.39 57.52 1.16 10
9 05/23/2022 11:17:01 -78.04, 172.41 122.05 05/23/2022 11:18:07 -78.02, 175.54 122.27 72.15 66
10 05/25/2022 16:00:50 -77.68, 103.06 122.90 05/25/2022 16:00:13 -77.67, 103.19 122.90 3.09 37
11 05/25/2022 16:50:17 77.70, -89.42 57.14 05/25/2022 16:51:14 77.69, -89.45 57.11 1.66 57
12 05/27/2022 21:34:12 77.62,-160.05 56.67 05/27/2022 21:33:13 77.62,-160.23 56.70 4.33 59



Historial Predications of SNOs between AQUA and NOAA-19
